User: anonymous   Login
Location: Oshawa
(43.9000°N, 78.8670°W)
Time: 09:58:28
(UTC-05:00)
Language:

ITAMSAT 1 - Orbit

View from above orbital plane
View from above orbital plane
View from above satellite
View from above satellite

Ground track
Ground track

The orbit data is extracted from the following two-line orbital elements,

1 22826U 93061D   17016.84289769  .00000012  00000-0  21953-4 0  9994
2 22826  98.7855 340.8418 0009773  48.6924 311.5097 14.30310338215944
Epoch (UTC): 16 January 2017 20:13:46
Eccentricity: 0.0009773
inclination: 98.7855°
perigee height: 783 km
apogee height: 798 km
right ascension of ascending node: 340.8418°
argument of perigee: 48.6924°
revolutions per day: 14.30310338
mean anomaly at epoch: 311.5097°
orbit number at epoch: 21594

The dashed part of the orbit path shows where the satellite is in the earth's shadow,  

DLR